Wetterdaten: Woche 08.01.07 - 14.01.07 (KW2)
Datum Zeit Temperatur Luftfeuchte Luftdruck Niederschlag Windrichtung Wind
08.01.2007 00:00 4,0 C 98 % 1020 hPa 0,0 l/m S-SW 5,7 km/h (1 Bft)
08.01.2007 01:00 4,0 C 98 % 1019 hPa 0,0 l/m S-SW 8,4 km/h (2 Bft)
08.01.2007 02:00 3,3 C 98 % 1018 hPa 0,0 l/m S 5,7 km/h (1 Bft)
08.01.2007 03:00 2,7 C 98 % 1018 hPa 0,0 l/m S 6,9 km/h (2 Bft)
08.01.2007 04:00 2,7 C 98 % 1017 hPa 0,0 l/m S 8,1 km/h (2 Bft)
08.01.2007 05:00 2,5 C 98 % 1017 hPa 0,0 l/m S-SW 7,2 km/h (2 Bft)
08.01.2007 06:00 4,2 C 98 % 1016 hPa 0,0 l/m S-SW 10,4 km/h (2 Bft)
08.01.2007 07:00 4,4 C 96 % 1016 hPa 0,0 l/m S-SW 9,1 km/h (2 Bft)
08.01.2007 08:00 4,3 C 95 % 1015 hPa 0,0 l/m S 8,8 km/h (2 Bft)
08.01.2007 09:00 4,2 C 96 % 1015 hPa 0,0 l/m S-SW 9,3 km/h (2 Bft)
08.01.2007 10:00 5,1 C 93 % 1015 hPa 0,0 l/m S-SW 10,9 km/h (2 Bft)
08.01.2007 11:00 7,7 C 75 % 1015 hPa 0,0 l/m SW 18,9 km/h (3 Bft)
08.01.2007 12:00 8,9 C 65 % 1014 hPa 0,0 l/m S 22,1 km/h (4 Bft)
08.01.2007 13:00 9,1 C 66 % 1014 hPa 1,0 l/m S 20,5 km/h (4 Bft)
08.01.2007 14:00 9,2 C 67 % 1014 hPa 0,0 l/m S-SO 19,5 km/h (3 Bft)
08.01.2007 15:00 9,3 C 68 % 1014 hPa 0,0 l/m S 17,7 km/h (3 Bft)
08.01.2007 16:00 8,5 C 77 % 1015 hPa 0,0 l/m S 16,7 km/h (3 Bft)
08.01.2007 17:00 8,2 C 77 % 1015 hPa 0,0 l/m S 16,1 km/h (3 Bft)
08.01.2007 18:00 8,0 C 77 % 1015 hPa 0,0 l/m S 13,4 km/h (3 Bft)
08.01.2007 19:00 8,2 C 74 % 1016 hPa 0,0 l/m S 15,5 km/h (3 Bft)
08.01.2007 20:00 8,1 C 73 % 1015 hPa 0,0 l/m S 18,4 km/h (3 Bft)
08.01.2007 21:00 7,9 C 76 % 1016 hPa 0,0 l/m S 14,7 km/h (3 Bft)
08.01.2007 22:00 7,9 C 77 % 1015 hPa 0,0 l/m SW 13,3 km/h (3 Bft)
08.01.2007 23:00 8,4 C 72 % 1015 hPa 0,0 l/m SW 16,1 km/h (3 Bft)
09.01.2007 00:00 8,5 C 72 % 1016 hPa 0,0 l/m SW 17,4 km/h (3 Bft)
09.01.2007 01:00 8,5 C 75 % 1016 hPa 0,0 l/m SW 20,0 km/h (4 Bft)
09.01.2007 02:00 8,3 C 81 % 1017 hPa 0,0 l/m SW 17,4 km/h (3 Bft)
09.01.2007 03:00 8,0 C 90 % 1017 hPa 0,0 l/m S-SW 19,8 km/h (4 Bft)
09.01.2007 04:00 7,9 C 93 % 1018 hPa 0,0 l/m S-SW 16,9 km/h (3 Bft)
09.01.2007 05:00 7,9 C 95 % 1018 hPa 0,0 l/m S-SW 18,4 km/h (3 Bft)
09.01.2007 06:00 7,8 C 98 % 1019 hPa 1,0 l/m S-SW 17,0 km/h (3 Bft)
09.01.2007 07:00 8,0 C 98 % 1019 hPa 1,0 l/m SW 19,0 km/h (3 Bft)
09.01.2007 08:00 8,1 C 98 % 1020 hPa 1,0 l/m SW 19,0 km/h (3 Bft)
09.01.2007 09:00 8,1 C 98 % 1020 hPa 0,0 l/m S-SW 15,9 km/h (3 Bft)
09.01.2007 10:00 8,2 C 98 % 1021 hPa 1,0 l/m S-SW 15,0 km/h (3 Bft)
09.01.2007 11:00 8,9 C 97 % 1021 hPa 0,0 l/m S-SW 15,1 km/h (3 Bft)
09.01.2007 12:00 9,7 C 88 % 1021 hPa 0,0 l/m SW 17,8 km/h (3 Bft)
09.01.2007 13:00 9,9 C 88 % 1021 hPa 0,0 l/m S-SW 19,0 km/h (3 Bft)
09.01.2007 14:00 10,4 C 86 % 1021 hPa 0,0 l/m S-SW 18,4 km/h (3 Bft)
09.01.2007 15:00 10,6 C 84 % 1021 hPa 0,0 l/m S-SW 15,1 km/h (3 Bft)
09.01.2007 16:00 10,3 C 86 % 1022 hPa 0,0 l/m S 14,6 km/h (3 Bft)
09.01.2007 17:00 9,2 C 92 % 1023 hPa 0,0 l/m S-SW 11,1 km/h (2 Bft)
09.01.2007 18:00 8,6 C 96 % 1023 hPa 0,0 l/m S-SW 13,0 km/h (3 Bft)
09.01.2007 19:00 8,5 C 96 % 1023 hPa 0,0 l/m S-SW 11,3 km/h (2 Bft)
09.01.2007 20:00 8,4 C 97 % 1023 hPa 0,0 l/m S-SW 11,4 km/h (2 Bft)
09.01.2007 21:00 7,5 C 95 % 1024 hPa 0,0 l/m S 8,0 km/h (2 Bft)
09.01.2007 22:00 7,6 C 97 % 1024 hPa 0,0 l/m S-SW 8,6 km/h (2 Bft)
09.01.2007 23:00 6,6 C 95 % 1024 hPa 0,0 l/m S 0,9 km/h (0 Bft)
10.01.2007 00:00 5,1 C 96 % 1024 hPa 0,0 l/m N 0,0 km/h (0 Bft)
10.01.2007 01:00 4,2 C 97 % 1024 hPa 0,0 l/m N 0,0 km/h (0 Bft)
10.01.2007 02:00 3,4 C 98 % 1024 hPa 0,0 l/m N 0,0 km/h (0 Bft)
10.01.2007 03:00 3,0 C 98 % 1024 hPa 0,0 l/m N 0,0 km/h (0 Bft)
10.01.2007 04:00 3,1 C 98 % 1024 hPa 0,0 l/m S 0,3 km/h (0 Bft)
10.01.2007 05:00 4,3 C 98 % 1023 hPa 0,0 l/m S-SO 4,8 km/h (1 Bft)
10.01.2007 06:00 5,7 C 98 % 1023 hPa 0,0 l/m S-SO 5,9 km/h (2 Bft)
10.01.2007 07:00 5,7 C 98 % 1023 hPa 0,0 l/m S-SO 3,6 km/h (1 Bft)
10.01.2007 08:00 5,5 C 98 % 1023 hPa 0,0 l/m S-SO 0,8 km/h (0 Bft)
10.01.2007 09:00 5,9 C 98 % 1023 hPa 0,0 l/m S-SO 0,6 km/h (0 Bft)
10.01.2007 10:00 7,3 C 98 % 1023 hPa 0,0 l/m S 6,0 km/h (2 Bft)
10.01.2007 11:00 9,4 C 86 % 1023 hPa 0,0 l/m S-SW 11,1 km/h (2 Bft)
10.01.2007 12:00 10,5 C 76 % 1022 hPa 0,0 l/m S 13,6 km/h (3 Bft)
10.01.2007 13:00 11,5 C 72 % 1021 hPa 0,0 l/m S-SW 12,6 km/h (3 Bft)
10.01.2007 14:00 11,9 C 71 % 1021 hPa 0,0 l/m S 13,2 km/h (3 Bft)
10.01.2007 15:00 11,5 C 73 % 1021 hPa 0,0 l/m S-SW 12,1 km/h (2 Bft)
10.01.2007 16:00 10,5 C 74 % 1022 hPa 0,0 l/m S-SW 11,5 km/h (2 Bft)
10.01.2007 17:00 9,2 C 81 % 1022 hPa 0,0 l/m S-SW 12,3 km/h (3 Bft)
10.01.2007 18:00 8,8 C 83 % 1022 hPa 0,0 l/m S-SW 12,8 km/h (3 Bft)
10.01.2007 19:00 8,9 C 77 % 1023 hPa 0,0 l/m S-SW 13,7 km/h (3 Bft)
10.01.2007 20:00 9,5 C 73 % 1023 hPa 0,0 l/m S-SW 16,8 km/h (3 Bft)
10.01.2007 21:00 9,6 C 71 % 1023 hPa 0,0 l/m S-SW 15,8 km/h (3 Bft)
10.01.2007 22:00 9,2 C 74 % 1023 hPa 0,0 l/m S-SW 14,9 km/h (3 Bft)
10.01.2007 23:00 8,5 C 77 % 1024 hPa 0,0 l/m S-SW 13,8 km/h (3 Bft)
11.01.2007 00:00 9,5 C 69 % 1025 hPa 0,0 l/m SW 12,1 km/h (2 Bft)
11.01.2007 01:00 10,1 C 64 % 1025 hPa 0,0 l/m SW 15,9 km/h (3 Bft)
11.01.2007 02:00 9,5 C 66 % 1026 hPa 0,0 l/m SW 14,5 km/h (3 Bft)
11.01.2007 03:00 9,2 C 68 % 1026 hPa 0,0 l/m SW 14,3 km/h (3 Bft)
11.01.2007 04:00 8,7 C 77 % 1026 hPa 0,0 l/m W-SW 8,1 km/h (2 Bft)
11.01.2007 05:00 8,1 C 88 % 1026 hPa 0,0 l/m SW 9,1 km/h (2 Bft)
11.01.2007 06:00 7,8 C 93 % 1026 hPa 0,0 l/m S-SW 10,4 km/h (2 Bft)
11.01.2007 07:00 7,6 C 88 % 1026 hPa 0,0 l/m S-SW 11,8 km/h (2 Bft)
11.01.2007 08:00 7,8 C 84 % 1026 hPa 0,0 l/m SW 16,2 km/h (3 Bft)
11.01.2007 09:00 8,3 C 79 % 1025 hPa 0,0 l/m SW 15,6 km/h (3 Bft)
11.01.2007 10:00 8,8 C 73 % 1025 hPa 0,0 l/m SW 17,5 km/h (3 Bft)
11.01.2007 11:00 9,4 C 65 % 1025 hPa 0,0 l/m S 23,8 km/h (4 Bft)
11.01.2007 12:00 9,8 C 59 % 1023 hPa 0,0 l/m S 21,1 km/h (4 Bft)
11.01.2007 13:00 10,0 C 56 % 1022 hPa 0,0 l/m S-SO 21,7 km/h (4 Bft)
11.01.2007 14:00 9,9 C 57 % 1022 hPa 0,0 l/m S-SO 17,5 km/h (3 Bft)
11.01.2007 15:00 9,5 C 52 % 1022 hPa 0,0 l/m S 19,8 km/h (4 Bft)
11.01.2007 16:00 9,3 C 49 % 1021 hPa 0,0 l/m S 23,0 km/h (4 Bft)
11.01.2007 17:00 9,0 C 50 % 1021 hPa 0,0 l/m W-SW 20,2 km/h (4 Bft)
11.01.2007 18:00 9,0 C 46 % 1020 hPa 0,0 l/m SW 21,5 km/h (4 Bft)
11.01.2007 19:00 9,4 C 42 % 1019 hPa 0,0 l/m SW 26,2 km/h (4 Bft)
11.01.2007 20:00 9,9 C 46 % 1019 hPa 0,0 l/m S-SO 27,0 km/h (4 Bft)
11.01.2007 21:00 10,3 C 45 % 1019 hPa 0,0 l/m S-SO 24,3 km/h (4 Bft)
11.01.2007 22:00 10,1 C 48 % 1019 hPa 0,0 l/m S-SO 26,8 km/h (4 Bft)
11.01.2007 23:00 9,5 C 55 % 1019 hPa 0,0 l/m SO 30,2 km/h (5 Bft)
12.01.2007 00:00 9,2 C 60 % 1019 hPa 0,0 l/m SO 26,6 km/h (4 Bft)
12.01.2007 01:00 8,7 C 73 % 1020 hPa 1,0 l/m SO 21,9 km/h (4 Bft)
12.01.2007 02:00 7,2 C 80 % 1023 hPa 0,0 l/m S-SO 21,7 km/h (4 Bft)
12.01.2007 03:00 6,6 C 79 % 1023 hPa 0,0 l/m S-SO 14,3 km/h (3 Bft)
12.01.2007 04:00 6,7 C 77 % 1024 hPa 0,0 l/m SO 17,3 km/h (3 Bft)
12.01.2007 05:00 5,4 C 79 % 1026 hPa 1,0 l/m S 16,6 km/h (3 Bft)
12.01.2007 06:00 5,3 C 79 % 1027 hPa 0,0 l/m SO 12,1 km/h (2 Bft)
12.01.2007 07:00 4,8 C 86 % 1028 hPa 0,0 l/m SO 10,5 km/h (2 Bft)
12.01.2007 08:00 4,7 C 79 % 1028 hPa 0,0 l/m SO 9,4 km/h (2 Bft)
12.01.2007 09:00 5,7 C 74 % 1029 hPa 0,0 l/m SO 11,7 km/h (2 Bft)
12.01.2007 10:00 7,0 C 64 % 1029 hPa 0,0 l/m SO 14,5 km/h (3 Bft)
12.01.2007 11:00 7,3 C 63 % 1030 hPa 0,0 l/m SO 13,6 km/h (3 Bft)
12.01.2007 12:00 7,3 C 62 % 1030 hPa 0,0 l/m SO 18,5 km/h (3 Bft)
12.01.2007 13:00 7,5 C 63 % 1030 hPa 0,0 l/m SO 18,7 km/h (3 Bft)
12.01.2007 14:00 7,3 C 64 % 1030 hPa 0,0 l/m SO 16,3 km/h (3 Bft)
12.01.2007 15:00 7,2 C 65 % 1030 hPa 0,0 l/m O-SO 14,5 km/h (3 Bft)
12.01.2007 16:00 7,1 C 67 % 1029 hPa 0,0 l/m SO 17,0 km/h (3 Bft)
12.01.2007 17:00 7,2 C 66 % 1030 hPa 0,0 l/m O-SO 16,5 km/h (3 Bft)
12.01.2007 18:00 7,0 C 70 % 1030 hPa 0,0 l/m O-SO 16,1 km/h (3 Bft)
12.01.2007 19:00 7,4 C 63 % 1030 hPa 0,0 l/m SO 17,4 km/h (3 Bft)
12.01.2007 20:00 7,0 C 67 % 1030 hPa 0,0 l/m SO 14,2 km/h (3 Bft)
12.01.2007 21:00 7,4 C 63 % 1030 hPa 0,0 l/m O-SO 16,7 km/h (3 Bft)
12.01.2007 22:00 7,6 C 58 % 1029 hPa 0,0 l/m SO 21,5 km/h (4 Bft)
12.01.2007 23:00 7,5 C 56 % 1029 hPa 0,0 l/m O-SO 21,6 km/h (4 Bft)
13.01.2007 00:00 7,5 C 55 % 1029 hPa 0,0 l/m O-SO 22,2 km/h (4 Bft)
13.01.2007 01:00 7,1 C 57 % 1029 hPa 0,0 l/m O-SO 19,6 km/h (3 Bft)
13.01.2007 02:00 6,5 C 59 % 1029 hPa 0,0 l/m O-SO 17,5 km/h (3 Bft)
13.01.2007 03:00 5,9 C 63 % 1029 hPa 0,0 l/m O 12,2 km/h (2 Bft)
13.01.2007 04:00 6,2 C 64 % 1029 hPa 0,0 l/m SO 12,9 km/h (3 Bft)
13.01.2007 05:00 5,8 C 70 % 1029 hPa 0,0 l/m O-SO 15,6 km/h (3 Bft)
13.01.2007 06:00 5,3 C 78 % 1029 hPa 0,0 l/m O-SO 11,3 km/h (2 Bft)
13.01.2007 07:00 5,4 C 85 % 1030 hPa 0,0 l/m O-SO 10,3 km/h (2 Bft)
13.01.2007 08:00 5,8 C 85 % 1030 hPa 0,0 l/m O 8,7 km/h (2 Bft)
13.01.2007 09:00 6,4 C 84 % 1030 hPa 0,0 l/m O-SO 12,2 km/h (3 Bft)
13.01.2007 10:00 7,4 C 81 % 1030 hPa 0,0 l/m O-SO 13,1 km/h (3 Bft)
13.01.2007 11:00 8,9 C 74 % 1029 hPa 0,0 l/m O-SO 9,9 km/h (2 Bft)
13.01.2007 12:00 10,4 C 68 % 1028 hPa 0,0 l/m S-SW 13,6 km/h (3 Bft)
13.01.2007 13:00 11,1 C 64 % 1027 hPa 0,0 l/m S 12,9 km/h (3 Bft)
13.01.2007 14:00 11,7 C 64 % 1027 hPa 0,0 l/m S 12,7 km/h (3 Bft)
13.01.2007 15:00 11,0 C 66 % 1026 hPa 0,0 l/m S 9,0 km/h (2 Bft)
13.01.2007 16:00 9,3 C 71 % 1026 hPa 0,0 l/m S-SW 5,5 km/h (1 Bft)
13.01.2007 17:00 7,3 C 76 % 1025 hPa 0,0 l/m N 0,0 km/h (0 Bft)
13.01.2007 18:00 5,6 C 80 % 1025 hPa 0,0 l/m N 0,0 km/h (0 Bft)
13.01.2007 19:00 3,9 C 86 % 1024 hPa 0,0 l/m N 0,0 km/h (0 Bft)
13.01.2007 20:00 2,8 C 91 % 1024 hPa 0,0 l/m N 0,0 km/h (0 Bft)
13.01.2007 21:00 2,0 C 93 % 1024 hPa 0,0 l/m S-SW 0,9 km/h (0 Bft)
13.01.2007 22:00 1,6 C 98 % 1024 hPa 0,0 l/m S-SW 0,6 km/h (0 Bft)
13.01.2007 23:00 1,7 C 98 % 1024 hPa 0,0 l/m O-NO 3,8 km/h (1 Bft)
14.01.2007 00:00 2,6 C 98 % 1024 hPa 0,0 l/m O 5,4 km/h (1 Bft)
14.01.2007 01:00 2,5 C 98 % 1024 hPa 0,0 l/m O-NO 5,2 km/h (1 Bft)
14.01.2007 02:00 3,2 C 98 % 1025 hPa 0,0 l/m O 9,8 km/h (2 Bft)
14.01.2007 03:00 6,3 C 84 % 1026 hPa 0,0 l/m W-SW 15,6 km/h (3 Bft)
14.01.2007 04:00 6,8 C 84 % 1027 hPa 0,0 l/m W-SW 13,6 km/h (3 Bft)
14.01.2007 05:00 7,0 C 86 % 1028 hPa 0,0 l/m SW 11,5 km/h (2 Bft)
14.01.2007 06:00 7,3 C 87 % 1029 hPa 0,0 l/m SW 15,6 km/h (3 Bft)
14.01.2007 07:00 7,3 C 89 % 1029 hPa 0,0 l/m SW 14,0 km/h (3 Bft)
14.01.2007 08:00 7,3 C 88 % 1030 hPa 0,0 l/m S-SW 12,9 km/h (3 Bft)
14.01.2007 09:00 7,8 C 84 % 1031 hPa 0,0 l/m SW 13,7 km/h (3 Bft)
14.01.2007 10:00 8,1 C 78 % 1032 hPa 0,0 l/m SW 13,8 km/h (3 Bft)
14.01.2007 11:00 8,8 C 76 % 1032 hPa 0,0 l/m SW 13,4 km/h (3 Bft)
14.01.2007 12:00 10,1 C 66 % 1032 hPa 0,0 l/m W 11,2 km/h (2 Bft)
14.01.2007 13:00 10,2 C 66 % 1032 hPa 0,0 l/m W 12,0 km/h (2 Bft)
14.01.2007 14:00 9,6 C 66 % 1032 hPa 0,0 l/m W 9,4 km/h (2 Bft)
14.01.2007 15:00 10,0 C 58 % 1032 hPa 0,0 l/m W 6,8 km/h (2 Bft)
14.01.2007 16:00 8,7 C 63 % 1032 hPa 0,0 l/m S-SW 3,0 km/h (1 Bft)
14.01.2007 17:00 5,8 C 74 % 1032 hPa 0,0 l/m N 0,0 km/h (0 Bft)
14.01.2007 18:00 4,0 C 82 % 1032 hPa 0,0 l/m N 0,0 km/h (0 Bft)
14.01.2007 19:00 3,1 C 87 % 1033 hPa 0,0 l/m N 0,0 km/h (0 Bft)
14.01.2007 20:00 2,5 C 91 % 1033 hPa 0,0 l/m N 0,0 km/h (0 Bft)
14.01.2007 21:00 1,6 C 93 % 1033 hPa 0,0 l/m N 0,0 km/h (0 Bft)
14.01.2007 22:00 0,9 C 95 % 1033 hPa 0,0 l/m N 0,0 km/h (0 Bft)
14.01.2007 23:00 0,6 C 96 % 1033 hPa 0,0 l/m N 0,0 km/h (0 Bft)
Min-Datum _ 14.01.07 11.01.07 08.01.07 - - 08.01.07
_ Min-Zeit 23:58 19:00 13:50 - - 00:09
Minimum _ 0,3 C 41 % 1013 hPa - - 0,0 km/h (0 Bft)
Max-Datum _ 10.01.07 08.01.07 14.01.07 08.01.07 - 11.01.07
_ Max-Zeit 14:44 00:00 19:51 13:32 - 23:25
Maximum _ 12,3 C 98 % 1033 hPa 1,0 l/m - 55,0 km/h
SO (7 Bft)
Durchschnitt _ 7,3 C 79 % 1024 hPa #7,0 l/m S-SW 12,7 km/h (3 Bft)

Durchschnitt Minimum Temp.7,0 C
Durchschnitt Maximum Temp.7,6 C